Погода в Мутном Материке

Россия / Республика Коми     65°57′18″N   55°08′47″E
темп.,
°C
ветер,
м/с
пор.,
м/с
влажн.,
%
обл.,
%
осадки,
мм/ч
давл.,
гПа
погр.,
м
7 марта, вс
вс700:00−27зсз119989 0.0 100619
03:00−29св0110085 0.1 100719
06:00−31сз0010043 0.0 100719
09:00−26всв119654 0.0 1008109
12:00−22ссв009049 0.0 1008311
15:00−22ссв119272 0.0 1008283
18:00−28св129723 0.0 100819
21:00−30св119911 0.0 100919
8 марта, пн
пн800:00−31ссв1210030 0.0 100919
03:00−31ссв2210050 0.0 101019
06:00−32ссв2310097 0.0 100937
09:00−29ссв259798 0.1 1010251
12:00−27ссв3596100 0.0 1010367
15:00−28с3695100 0.1 1011397
18:00−33с3797100 0.0 1012130
21:00−36с239759 0.0 101353
9 марта, вт
вт900:00−37с239816 0.0 101325
03:00−37ссз229916 0.0 101319
06:00−36сз1210082 0.0 101319
09:00−30зсз239891 0.0 1013176
12:00−25зсз2595100 0.0 1014372
15:00−24зсз3694100 0.1 1015500
18:00−28з2398100 0.0 101544
21:00−31зюз229975 0.0 101519
10 марта, ср
ср1000:00−28юз359895 0.1 1014160
03:00−26зюз379798 0.2 1013272
06:00−25зюз4897100 0.2 1011295
09:00−22зюз3698100 0.6 1009305
12:00−18зюз2495100 0.4 1009383
15:00−16зюз2394100 0.7 1009323
18:00−17юз2397100 0.1 100985
21:00−17юз2297100 0.2 100832
11 марта, чт
чт1100:00−16ююз2297100 0.0 100725
03:00−14юз3696100 0.6 1006243
06:00−8зсз51291100 1.2 1005732
09:00−9зсз61486100 1.2 1005763
12:00−9зсз51185100 0.0 1005727
15:00−11з51188100 0.0 1006685
18:00−13з41291100 0.0 1007649
21:00−14з41092100 0.1 1007561